This demonstration page uses our WeatherBlox Daily Observations layout. Learn more.

Left ArrowRight Arrow

44.8408, -93.29828

Hourly Observations for April 17, 2022

Temp ( °F °C ) Dew Point ( °F °C ) Humidity (%) Winds ( mph kmh ) Pressure ( in mb ) Visibility ( mi km ) Precip ( " mm )
12:53 am 00:53 Clear 31 -0.6 16 -8.9 54 54 Calm 30.29 1026 10 16 0.00 0.00
1:53 am 01:53 Clear 30 -1.1 15 -9.4 54 54 W 3 6 30.30 1026 10 16 0.00 0.00
2:53 am 02:53 Clear 28 -2.2 16 -8.9 60 60 Calm 30.29 1026 10 16 0.00 0.00
3:53 am 03:53 Mostly Clear 29 -1.7 17 -8.3 61 61 Calm 30.29 1026 10 16 0.00 0.00
4:53 am 04:53 Partly Cloudy 28 -2.2 17 -8.3 63 63 Calm 30.28 1025 10 16 0.00 0.00
5:53 am 05:53 Mostly Clear 27 -2.8 18 -7.8 69 69 Calm 30.28 1026 10 16 0.00 0.00
6:53 am 06:53 Mostly Sunny 28 -2.2 20 -6.7 72 72 ENE 6 9 30.29 1026 10 16 0.00 0.00
7:53 am 07:53 Partly Cloudy 31 -0.6 19 -7.2 61 61 VRB 5 7 30.31 1026 10 16 0.00 0.00
8:53 am 08:53 Partly Cloudy 35 1.7 18 -7.8 50 50 SE 9 15 30.30 1026 10 16 0.00 0.00
9:53 am 09:53 Mostly Cloudy 39 3.9 19 -7.2 45 45 SSE 13 20 30.28 1026 10 16 0.00 0.00
10:53 am 10:53 Mostly Cloudy 42 5.6 19 -7.2 40 40 SE 15 24 30.27 1025 10 16 0.00 0.00
11:53 am 11:53 Mostly Cloudy 42 5.6 18 -7.8 38 38 SSE 17 28 30.26 1025 10 16 0.00 0.00
12:53 pm 12:53 Cloudy 44 6.7 20 -6.7 38 38 SSE 10 17 30.25 1024 10 16 0.00 0.00
1:53 pm 13:53 Cloudy 44 6.7 19 -7.2 37 37 S 12 19 30.25 1024 10 16 0.00 0.00
2:53 pm 14:53 Cloudy 43 6.1 21 -6.1 42 42 SSW 14 22 30.24 1024 10 16 0.00 0.00
3:53 pm 15:53 Cloudy 40 4.4 27 -2.8 60 60 S 14 22 30.24 1024 10 16 0.00 0.00
4:30 pm 16:30 Cloudy with Light Rain/Snow 38 3.3 28 -2.2 68 68 SSW 15 24 30.23 1024 8 13 0.00 0.00
4:53 pm 16:53 Cloudy with Light Rain/Snow 36 2.2 31 -0.6 82 82 SSW 9 15 30.23 1024 3 5 0.01 0.25
5:03 pm 17:03 Cloudy with Light Rain/Snow 35 1.7 31 -0.6 85 85 SSW 6 9 30.24 1024 3 5 0.00 0.00
5:48 pm 17:48 Cloudy with Light Rain/Snow 36 2 32 0 87 87 SW 7 11 30.23 1024 2 3 0.02 0.51
5:53 pm 17:53 Cloudy with Light Rain/Snow 34 1.1 32 0 92 92 SW 8 13 30.22 1023 2 3 0.03 0.76
6:08 pm 18:08 Cloudy with Light Rain/Snow 34 1.1 32 0 92 92 SSW 6 9 30.23 1024 2 3 0.01 0.25
6:25 pm 18:25 Cloudy with Light Snow 35 1.7 32 0 89 89 SW 7 11 30.23 1024 3 5 0.01 0.25
6:32 pm 18:32 Cloudy with Light Snow 35 1.7 32 0 89 89 SW 6 9 30.23 1024 4 6 0.02 0.51
6:53 pm 18:53 Cloudy with Light Snow 35 1.7 32 0 89 89 SSW 5 7 30.21 1023 3 5 0.02 0.51
7:47 pm 19:47 Cloudy with Light Snow 34 1 30 -1 87 87 S 6 9 30.20 1023 2 3 0.01 0.25
7:53 pm 19:53 Cloudy with Light Snow 34 1.1 31 -0.6 89 89 S 6 9 30.18 1022 2 3 0.01 0.25
8:18 pm 20:18 Cloudy with Light Snow 34 1.1 32 0 92 92 S 6 9 30.20 1023 4 6 0.01 0.25
8:41 pm 20:41 Cloudy with Light Snow 34 1.1 32 0 92 92 S 6 9 30.20 1023 4 6 0.01 0.25
8:53 pm 20:53 Cloudy with Light Snow 34 1.1 32 0 92 92 S 8 13 30.18 1022 4 6 0.01 0.25
9:16 pm 21:16 Cloudy with Light Snow 34 1.1 31 -0.6 89 89 SSE 7 11 30.19 1022 4 6 0.00 0.00
9:32 pm 21:32 Cloudy 33 0.6 31 -0.6 92 92 SSE 7 11 30.18 1022 8 13 0.00 0.00
9:53 pm 21:53 Cloudy 34 1.1 32 0 92 92 S 6 9 30.17 1022 10 16 0.00 0.00
10:07 pm 22:07 Cloudy 34 1.1 32 0 92 92 S 8 13 30.18 1022 10 16 0.00 0.00
10:35 pm 22:35 Cloudy 34 1.1 31 -0.6 89 89 S 10 17 30.18 1022 10 16 0.00 0.00
10:53 pm 22:53 Cloudy 35 1.7 31 -0.6 85 85 SSW 10 17 30.16 1022 10 16 0.00 0.00
11:53 pm 23:53 Cloudy with Light Snow 34 1.1 30 -1.1 85 85 SSW 12 19 30.14 1021 9 14 0.00 0.00

Powered by AerisWeather